When you browse on this site, cookies collect data to enhance your experience and personalize the content and advertising you see.
Visit our Privacy Policy to learn more. By continuing to use the site, you agree to this use of cookies and data.
  • En España
  • Lista de países
  • Para 7 días
  • Temperatura del agua
  • El tiempo en el mapa
  • Informadores
  • user-avatar
    Iniciar sesión

    Tiempo cada hora Bristol

    Hoy, 17 Septiembre, Martes

    Tiempo Temperatura Precipitaciones Viento Presión Humedad
    00:00 +12°C° 0 mm 3 mps 766 mmHg 81%
    01:00 +11°C° 0 mm 3 mps 766 mmHg 83%
    02:00 +10°C° 0 mm 3 mps 766 mmHg 86%
    03:00 +10°C° 0 mm 3 mps 766 mmHg 88%
    04:00 +9°C° 0 mm 3 mps 766 mmHg 89%
    05:00 +9°C° 0 mm 3 mps 767 mmHg 90%
    06:00 +9°C° 0 mm 2 mps 767 mmHg 91%
    07:00 +10°C° 0 mm 3 mps 767 mmHg 85%
    08:00 +12°C° 0 mm 3 mps 767 mmHg 79%
    09:00 +13°C° 0 mm 4 mps 768 mmHg 74%
    10:00 +14°C° 0 mm 4 mps 768 mmHg 70%
    11:00 +15°C° 0 mm 4 mps 768 mmHg 67%
    12:00 +16°C° 0 mm 5 mps 768 mmHg 64%
    13:00 +18°C° 0 mm 4 mps 768 mmHg 63%
    14:00 +18°C° 0 mm 4 mps 768 mmHg 62%
    15:00 +18°C° 0 mm 4 mps 768 mmHg 61%
    16:00 +17°C° 0 mm 4 mps 768 mmHg 65%
    17:00 +16°C° 0 mm 3 mps 768 mmHg 70%
    18:00 +14°C° 0 mm 3 mps 768 mmHg 75%
    19:00 +13°C° 0 mm 3 mps 768 mmHg 77%
    20:00 +12°C° 0 mm 3 mps 769 mmHg 80%
    21:00 +11°C° 0 mm 3 mps 769 mmHg 82%
    22:00 +10°C° 0 mm 3 mps 769 mmHg 84%
    23:00 +9°C° 0 mm 3 mps 769 mmHg 86%

    Mañana, 18 Septiembre, Miércoles

    Tiempo Temperatura Precipitaciones Viento Presión Humedad
    00:00 +9°C° 0 mm 3 mps 770 mmHg 87%
    01:00 +8°C° 0 mm 2 mps 770 mmHg 87%
    02:00 +8°C° 0 mm 2 mps 770 mmHg 87%
    03:00 +7°C° 0 mm 2 mps 770 mmHg 88%
    04:00 +7°C° 0 mm 2 mps 770 mmHg 87%
    05:00 +7°C° 0 mm 2 mps 770 mmHg 86%
    06:00 +8°C° 0 mm 1 mps 771 mmHg 85%
    07:00 +8°C° 0 mm 2 mps 771 mmHg 78%
    08:00 +10°C° 0 mm 2 mps 771 mmHg 71%
    09:00 +13°C° 0 mm 2 mps 771 mmHg 64%
    10:00 +14°C° 0 mm 2 mps 771 mmHg 60%
    11:00 +16°C° 0 mm 2 mps 771 mmHg 56%
    12:00 +17°C° 0 mm 2 mps 771 mmHg 52%
    13:00 +17°C° 0 mm 2 mps 771 mmHg 52%
    14:00 +18°C° 0 mm 2 mps 771 mmHg 51%
    15:00 +18°C° 0 mm 2 mps 771 mmHg 51%
    16:00 +17°C° 0 mm 2 mps 770 mmHg 57%
    17:00 +16°C° 0 mm 2 mps 770 mmHg 63%
    18:00 +15°C° 0 mm 1 mps 770 mmHg 68%
    19:00 +14°C° 0 mm 1 mps 771 mmHg 70%
    20:00 +13°C° 0 mm 1 mps 771 mmHg 72%
    21:00 +12°C° 0 mm 1 mps 771 mmHg 74%
    22:00 +12°C° 0 mm 1 mps 771 mmHg 76%
    23:00 +11°C° 0 mm 1 mps 771 mmHg 77%

    Pasado mañana, 19 Septiembre, Jueves

    Tiempo Temperatura Precipitaciones Viento Presión Humedad
    00:00 +11°C° 0 mm 1 mps 771 mmHg 79%
    01:00 +11°C° 0 mm 1 mps 771 mmHg 81%
    02:00 +11°C° 0 mm 1 mps 771 mmHg 82%
    03:00 +10°C° 0 mm 1 mps 771 mmHg 84%
    04:00 +10°C° 0 mm 1 mps 771 mmHg 84%
    05:00 +10°C° 0 mm 1 mps 771 mmHg 85%
    06:00 +10°C° 0 mm 1 mps 771 mmHg 85%
    07:00 +11°C° 0 mm 1 mps 772 mmHg 79%
    08:00 +13°C° 0 mm 1 mps 772 mmHg 73%
    09:00 +15°C° 0 mm 1 mps 772 mmHg 66%
    10:00 +18°C° 0 mm 1 mps 772 mmHg 63%
    11:00 +19°C° 0 mm 1 mps 772 mmHg 59%
    12:00 +20°C° 0 mm 1 mps 772 mmHg 56%
    13:00 +21°C° 0 mm 1 mps 772 mmHg 56%
    14:00 +21°C° 0 mm 1 mps 771 mmHg 55%
    15:00 +22°C° 0 mm 1 mps 771 mmHg 55%
    16:00 +20°C° 0 mm 1 mps 771 mmHg 61%
    17:00 +19°C° 0 mm 1 mps 771 mmHg 66%
    18:00 +18°C° 0 mm 1 mps 770 mmHg 72%
    19:00 +16°C° 0 mm 1 mps 771 mmHg 75%
    20:00 +15°C° 0 mm 1 mps 771 mmHg 78%
    21:00 +14°C° 0 mm 1 mps 771 mmHg 81%
    22:00 +13°C° 0 mm 1 mps 771 mmHg 82%
    23:00 +13°C° 0 mm 2 mps 770 mmHg 83%

    20 Septiembre, Viernes

    Tiempo Temperatura Precipitaciones Viento Presión Humedad
    00:00 +12°C° 0 mm 2 mps 770 mmHg 84%
    01:00 +12°C° 0 mm 2 mps 770 mmHg 85%
    02:00 +12°C° 0 mm 2 mps 770 mmHg 86%
    03:00 +10°C° 0 mm 2 mps 770 mmHg 87%
    04:00 +10°C° 0 mm 2 mps 769 mmHg 89%
    05:00 +10°C° 0 mm 2 mps 769 mmHg 90%
    06:00 +10°C° 0 mm 2 mps 768 mmHg 91%
    07:00 +11°C° 0 mm 3 mps 768 mmHg 84%
    08:00 +13°C° 0 mm 4 mps 768 mmHg 77%
    09:00 +15°C° 0 mm 4 mps 768 mmHg 70%
    10:00 +16°C° 0 mm 5 mps 768 mmHg 64%
    11:00 +17°C° 0 mm 5 mps 767 mmHg 59%
    12:00 +20°C° 0 mm 5 mps 767 mmHg 53%
    13:00 +20°C° 0 mm 5 mps 766 mmHg 51%
    14:00 +20°C° 0 mm 5 mps 765 mmHg 49%
    15:00 +20°C° 0 mm 6 mps 764 mmHg 48%
    16:00 +19°C° 0 mm 5 mps 764 mmHg 51%
    17:00 +16°C° 0 mm 5 mps 763 mmHg 55%
    18:00 +15°C° 0 mm 4 mps 763 mmHg 58%
    19:00 +14°C° 0 mm 5 mps 763 mmHg 57%
    20:00 +14°C° 0 mm 5 mps 762 mmHg 56%
    21:00 +13°C° 0 mm 5 mps 762 mmHg 55%
    22:00 +13°C° 0 mm 5 mps 761 mmHg 58%
    23:00 +13°C° 0 mm 5 mps 761 mmHg 62%

    21 Septiembre, Sábado

    Tiempo Temperatura Precipitaciones Viento Presión Humedad
    00:00 +13°C° 0 mm 5 mps 760 mmHg 66%
    01:00 +12°C° 0 mm 5 mps 760 mmHg 69%
    02:00 +12°C° 0 mm 4 mps 759 mmHg 72%
    03:00 +12°C° 0 mm 4 mps 759 mmHg 76%
    04:00 +11°C° 0 mm 4 mps 758 mmHg 78%
    05:00 +11°C° 0 mm 4 mps 758 mmHg 80%
    06:00 +11°C° 0 mm 3 mps 758 mmHg 82%
    07:00 +13°C° 0 mm 4 mps 757 mmHg 77%
    08:00 +14°C° 0 mm 4 mps 757 mmHg 72%
    09:00 +16°C° 0 mm 5 mps 757 mmHg 68%
    10:00 +19°C° 0 mm 5 mps 756 mmHg 65%
    11:00 +20°C° 0 mm 5 mps 756 mmHg 63%
    12:00 +22°C° 0 mm 6 mps 756 mmHg 60%
    13:00 +22°C° 0.1 mm 6 mps 755 mmHg 64%
    14:00 +22°C° 0.1 mm 6 mps 755 mmHg 67%
    15:00 +22°C° 0.1 mm 6 mps 754 mmHg 71%
    16:00 +21°C° 0.7 mm 5 mps 754 mmHg 77%
    17:00 +20°C° 0.7 mm 4 mps 754 mmHg 84%
    18:00 +19°C° 0.7 mm 3 mps 753 mmHg 90%
    19:00 +18°C° 0.5 mm 3 mps 753 mmHg 92%
    20:00 +18°C° 0.5 mm 4 mps 754 mmHg 93%
    21:00 +17°C° 0.5 mm 4 mps 754 mmHg 95%
    22:00 +17°C° 0 mm 4 mps 754 mmHg 95%
    23:00 +16°C° 0 mm 5 mps 753 mmHg 95%

    22 Septiembre, Domingo

    Tiempo Temperatura Precipitaciones Viento Presión Humedad
    00:00 +15°C° 0 mm 5 mps 753 mmHg 95%
    01:00 +15°C° 0 mm 5 mps 753 mmHg 95%
    02:00 +15°C° 0 mm 5 mps 753 mmHg 95%
    03:00 +16°C° 0 mm 5 mps 753 mmHg 95%
    04:00 +16°C° 1.6 mm 5 mps 753 mmHg 94%
    05:00 +16°C° 1.6 mm 5 mps 753 mmHg 94%
    06:00 +16°C° 1.6 mm 5 mps 753 mmHg 93%
    07:00 +16°C° 0 mm 5 mps 754 mmHg 89%
    08:00 +16°C° 0 mm 5 mps 754 mmHg 85%
    09:00 +17°C° 0 mm 4 mps 754 mmHg 82%
    10:00 +17°C° 0.3 mm 4 mps 755 mmHg 81%
    11:00 +16°C° 0.3 mm 5 mps 755 mmHg 80%
    12:00 +16°C° 0.3 mm 5 mps 756 mmHg 79%
    13:00 +17°C° 0 mm 5 mps 756 mmHg 74%
    14:00 +19°C° 0 mm 6 mps 756 mmHg 68%
    15:00 +19°C° 0 mm 6 mps 756 mmHg 62%
    16:00 +17°C° 0 mm 6 mps 757 mmHg 67%
    17:00 +16°C° 0 mm 5 mps 757 mmHg 72%
    18:00 +15°C° 0 mm 4 mps 758 mmHg 76%
    19:00 +14°C° 0 mm 4 mps 758 mmHg 80%
    20:00 +13°C° 0 mm 4 mps 759 mmHg 84%
    21:00 +12°C° 0 mm 4 mps 760 mmHg 88%
    22:00 +12°C° 0 mm 4 mps 760 mmHg 89%
    23:00 +12°C° 0 mm 4 mps 760 mmHg 90%
    Mostrar más